GW0851 Weather Reports


time (UTC)temp
F
wind
direction
speed
knots
gust
knots
rain 1hr
in
rain 24hr
in
rain mn
in
humidity
%
barometer
mb
20260504201510 73 82 7.0 13.9 0.00 0.00 0.00 39 1007.1
20260504200005 73 102 7.0 13.0 0.00 0.00 0.00 39 1007.4
20260504194502 73 102 6.1 13.9 0.00 0.00 0.00 40 1007.6
20260504193002 73 111 3.5 8.7 0.00 0.00 0.00 38 1007.7
20260504191605 73 217 4.3 13.9 0.00 0.00 0.00 40 1008.0
20260504190120 73 347 3.5 12.2 0.00 0.00 0.00 38 1008.2
20260504184608 73 76 5.2 17.4 0.00 0.00 0.00 39 1008.2
20260504183054 72 124 1.7 10.4 0.00 0.00 0.00 42 1008.5
20260504181554 72 93 0.9 10.4 0.00 0.00 0.00 39 1008.7
20260504180052 72 138 6.1 14.8 0.00 0.00 0.00 41 1008.9
20260504174601 71 61 3.5 13.0 0.00 0.00 0.00 41 1009.0
20260504173051 71 81 3.5 11.3 0.00 0.00 0.00 39 1009.2
20260504171546 70 126 4.3 10.4 0.00 0.00 0.00 42 1009.4
20260504081512 35 55 0.0 0.0 0.00 0.00 0.00 91 1012.8
20260504060104 37 55 0.0 0.0 0.00 0.00 0.00 89 1012.7
20260504044601 39 55 0.0 0.0 0.00 0.00 0.00 85 1012.7
20260504043051 39 55 0.0 0.0 0.00 0.00 0.00 84 1012.6
20260504041550 40 55 0.0 0.0 0.00 0.00 0.00 82 1012.6
20260504040042 40 55 0.0 0.0 0.00 0.00 0.00 80 1012.4
20260504034550 41 55 0.0 0.0 0.00 0.00 0.00 79 1012.2
20260504033050 41 55 0.0 0.0 0.00 0.00 0.00 77 1012.0
20260504031536 42 55 0.0 0.0 0.00 0.00 0.00 75 1012.0
20260504030030 43 55 0.0 0.0 0.00 0.00 0.00 74 1011.9
20260504024530 44 55 0.0 0.0 0.00 0.00 0.00 71 1011.9
20260504023027 45 55 0.0 0.0 0.00 0.00 0.00 68 1011.8
20260504021534 46 55 0.0 0.0 0.00 0.00 0.00 66 1011.8
20260504020013 47 55 0.0 0.0 0.00 0.00 0.00 64 1011.8
20260504014502 48 55 0.0 0.0 0.00 0.00 0.00 61 1011.8
20260504013106 49 55 0.0 0.0 0.00 0.00 0.00 59 1011.7
20260504011559 50 55 0.0 0.9 0.00 0.00 0.00 56 1011.7
20260504010101 51 55 0.0 0.0 0.00 0.00 0.00 53 1011.5
20260504004556 52 55 0.0 0.0 0.00 0.00 0.00 51 1011.5
20260504003053 54 55 0.0 0.9 0.00 0.00 0.00 48 1011.2
20260504001609 55 55 0.0 1.7 0.00 0.00 0.00 45 1011.0
20260504000049 56 68 1.7 7.0 0.00 0.00 0.00 41 1010.8
20260503234546 57 74 1.7 10.4 0.00 0.00 0.00 40 1010.7
20260503233046 58 132 2.6 8.7 0.00 0.00 0.00 41 1010.6
20260503231545 58 101 1.7 9.6 0.00 0.00 0.00 39 1010.5
20260503230041 59 115 6.1 13.9 0.00 0.00 0.00 38 1010.4
20260503224541 59 100 4.3 10.4 0.00 0.00 0.00 37 1010.4
20260503223033 59 80 1.7 9.6 0.00 0.00 0.00 37 1010.3
20260503221538 59 96 2.6 15.6 0.00 0.00 0.00 38 1010.4
20260503220033 60 88 7.0 15.6 0.00 0.00 0.00 37 1010.4
20260503214529 60 109 6.1 13.9 0.00 0.00 0.00 37 1010.4
20260503213031 59 101 0.9 13.9 0.00 0.00 0.00 38 1010.3
20260503211524 59 87 2.6 9.6 0.00 0.00 0.00 37 1010.1
20260503210021 59 88 3.5 8.7 0.00 0.00 0.00 36 1010.2
20260503204524 59 130 0.9 12.2 0.00 0.00 0.00 40 1010.1
20260503203015 59 89 3.5 10.4 0.00 0.00 0.00 38 1010.4